Terminal Aerodrome Forecast
Issued by NWS Norman, OK

Home | Current Version | Previous Version | Text Only | Print | Product List | Glossary On
Versions: 1 2 3 4 5 6 7 8 9 10 11 12 13 14 15 16 17 18 19 20 21 22 23 24 25 26 27 28 29 30 31 32
000
FTUS44 KOUN 201120
TAFOKC
TAF
KOKC 201120Z 2012/2112 16006KT 4SM BR SCT050 BKN200
     FM201500 17010KT P6SM SCT040
     FM210000 15005KT P6SM SKC=

USA.gov is the U.S. government's official web portal to all federal, state and local government web resources and services.